Location: Drocourt
(49.0571°N, 1.7669°E)
Time: 12:54:39
(UTC+00:00)

SR - Pass Details

Date: 13 April 2024
Orbit: 579 x 859 km, 66.7° (Epoch: 28 May)

Event Time Altitude Azimuth Distance (km) Brightness Sun altitude
Rises 04:09:21 0° 226° (SW) 3,360 - -9.4°
Reaches altitude 10° 04:11:54 10° 230° (SW) 2,399 - -9.0°
Exits shadow 04:11:56 10° 230° (SW) 2,388 ? -9.0°
Maximum altitude 04:17:22 60° 310° (NW) 887 ? -8.2°
Drops below altitude 10° 04:22:27 10° 30° (NNE) 2,237 ? -7.4°
Sets 04:24:46 0° 35° (NE) 3,115 ? -7.1°
